Regional Weather Roundup
Issued by NWS

Home | Current Version | Previous Version | Graphics & Text | Print | Product List | Glossary Off
Versions: 1 2 3 4 5 6 7 8 9 10 11 12 13 14 15 16 17 18 19 20 21 22 23 24 25 26 27 28 29 30 31 32 33 34 35 36 37 38 39 40 41 42 43 44 45 46 47 48 49 50

178
ASUS43 KDMX 231006
RWRIA

WEATHER ROUNDUP FOR IOWA
NATIONAL WEATHER SERVICE DES MOINES IA
500 AM CDT TUE MAY 23 2017

NOTE: "FAIR" INDICATES FEW OR NO CLOUDS BELOW 12,000 FEET WITH NO
SIGNIFICANT WEATHER AND/OR OBSTRUCTIONS TO VISIBILITY.

* - THESE STATIONS ARE NOT NWS STATIONS...THUS NOT UNDER NWS
QUALITY CONTROL.  THEY ALSO DO NOT REPORT WEATHER SUCH
AS PRECIPITATION OR FOG.

IAZ001>003-012>014-020>022-031>034-043>046-231100-
   NORTHWEST IOWA

CITY           SKY/WX    TMP DP  RH WIND       PRES   REMARKS
CARROLL *      PTCLDY    50  46  87 W9        29.85F
CHEROKEE *     MOCLDY    47  44  88 NW7       29.88S
DENISON *      PTCLDY    46  45  93 W7        29.89F
LE MARS *      PTCLDY    46  43  87 NW7       29.90F
ORANGE CITY *  MOCLDY    45  43  93 NW5       29.88F
SHELDON *      CLOUDY    46  43  87 NW7         N/A
SIOUX CITY     CLEAR     47  44  90 NW7       29.91S
SPENCER        LGT RAIN  49  46  90 NW14      29.85S
STORM LAKE *   CLOUDY    48  45  87 NW15      29.87S
$$

IAZ055>058-069>071-079>083-090>094-231100-
   SOUTHWEST IOWA

CITY           SKY/WX    TMP DP  RH WIND       PRES   REMARKS
ATLANTIC *     MOCLDY    48  45  87 NW6       29.88S
AUDUBON *      PTCLDY    46  45  93 NW3       29.87F
CLARINDA *     MOCLDY    52  46  82 N13       29.91R
COUNCIL BLFS * PTCLDY    46  46 100 W6        29.90S
CRESTON *      MOCLDY    50  48  93 NW12      29.87S
HARLAN  *      CLEAR     46  46 100 NW9       29.91S
LAMONI         CLOUDY    51  51 100 W6        29.85S
RED OAK *      CLOUDY    52  46  82 NW8       29.90R
SHENANDOAH *   CLOUDY    52  46  82 NW5       29.90S
$$

IAZ047>049-059>061-072>074-084-231100-
   CENTRAL IOWA

CITY           SKY/WX    TMP DP  RH WIND       PRES   REMARKS
AMES           PTCLDY    51  49  92 NW8       29.82S
ANKENY *       CLOUDY    52  50  93 NW9       29.84R
BOONE *        CLOUDY    50  50 100 NW8       29.82S
DES MOINES     CLOUDY    53  50  89 NW8       29.83R
GRINNELL*      CLOUDY    49  48  95 SW6       29.82S
MARSHALLTOWN   MOCLDY    50  50 100 NW8       29.80R FOG
NEWTON *       MOCLDY    48  48 100 SW6       29.81R
PELLA *        CLOUDY    51  51  97 W7        29.84R
PERRY *          N/A     51  49  93 NW9       29.85R
$$

IAZ004>006-015-016-023>025-035-036-231100-
   NORTH CENTRAL IOWA

CITY           SKY/WX    TMP DP  RH WIND       PRES   REMARKS
ALGONA *       CLOUDY    50  50 100 NW8       29.84S
CLARION *      CLOUDY    52  52 100 NW8       29.83S
ESTHERVILLE    CLOUDY    48  47  96 NW15      29.84S
FORT DODGE *   CLOUDY    50  46  87 NW6       29.85S
MASON CITY     CLOUDY    50  47  89 NW9       29.82S
FOREST CITY *  CLOUDY    50  45  81 NW9       29.82S
WEBSTER CITY * CLOUDY    52  50  93 NW10      29.81S
IOWA FALLS *   CLOUDY    51  48  90 NW10      29.81S
$$

IAZ007>011-017>019-026>030-037>042-050>054-066-231100-
   NORTHEAST IOWA

CITY           SKY/WX    TMP DP  RH WIND       PRES   REMARKS
CEDAR RAPIDS   PTCLDY    49  49 100 SW7       29.78F
CHARLES CITY * CLOUDY    52  50  93 NW8       29.79R
CLINTON *      CLOUDY    53  51  93 SW8       29.79F
DECORAH *      PTCLDY    50  50 100 W5        29.76S
DUBUQUE        CLOUDY    52  51  97 SW10      29.76F
MONTICELLO *   CLOUDY    52  50  93 S5        29.78S
OELWEIN *      FOG       50  50 100 W5        29.78S VSB 1/4
WATERLOO       CLOUDY    50  49  96 NW7       29.78R FOG
$$

IAZ064-065-067-068-078-231100-
   EAST CENTRAL IOWA

CITY           SKY/WX    TMP DP  RH WIND       PRES   REMARKS
DAVENPORT      CLOUDY    54  50  86 SW8       29.80S
IOWA CITY      CLOUDY    53  50  89 CALM      29.80F
MT. PLEASANT * CLOUDY    55  55  98 SW7       29.81F
MUSCATINE *    CLOUDY    55  52  88 SW8       29.81F
QUAD CITIES    CLOUDY    56  51  84 SW8       29.80S
$$

IAZ062-063-075>077-085>089-095>099-231100-
   SOUTHEAST IOWA

CITY           SKY/WX    TMP DP  RH WIND       PRES   REMARKS
BURLINGTON     CLOUDY    57  56  96 S7        29.81F
FAIRFIELD *    CLOUDY    52  50  93 SW6       29.81S
FORT MADISON * CLOUDY    57  55  94 SW7       29.82F
KEOKUK *       CLOUDY    57  55  94 SW7       29.81F
OSKALOOSA *      N/A     50  49  96 W7        29.82R
CENTERVILLE *  CLOUDY    52  52 100 CALM      29.84S
OTTUMWA        CLOUDY    51  51 100 W7        29.81F
WASHINGTON *   CLOUDY    52  50  93 SW7       29.82S
$$

ABBREVIATIONS USED IN REMARKS
   TC - TEMPERATURES IN CELSIUS
  WCI - WIND CHILL INDEX
   HX - HEAT INDEX
  VSB - VISIBILITY
$$





USA.gov is the U.S. government's official web portal to all federal, state and local government web resources and services.